Weather History for Grand Canyon, AZ

Change the Weather History Date:

Monday, February 3, 2014

  Actual Average Record
Temperature  
Mean Temperature 22 °F -  
Max Temperature 30 °F 42 °F 61 °F (1980)
Min Temperature 12 °F 14 °F -1 °F (1990)
Degree Days  
Heating Degree Days 42    
Moisture  
Dew Point 19 °F    
Average Humidity 81    
Maximum Humidity 100    
Minimum Humidity 63    
Precipitation  
Precipitation 0.00 in - - ()
Sea Level Pressure  
Sea Level Pressure 29.87 in    
Wind  
Wind Speed 2 mph (SW)    
Max Wind Speed 10 mph    
Max Gust Speed -    
Visibility 8 miles    
Events Snow    
Averages and records for this station are not official NWS values.
T = Trace of Precipitation, MM = Missing Value Source: NWS Daily Summary

Daily Weather History Graph

Daily Weather History Graph

Search for Another Location

Airport:

Trip Planner

Search our weather history database for the weather conditions in past years. The results will help you decide how hot, cold, wet, or windy it might be!

Date:

Astronomy

Feb. 03, 2014 Rise Set
Actual Time 7:27 AM MST 5:57 PM MST
Civil Twilight 7:00 AM MST 6:24 PM MST
Nautical Twilight 6:30 AM MST 6:55 PM MST
Astronomical Twilight 6:00 AM MST 7:25 PM MST
Moon 9:41 AM MST (2/3) 10:41 PM MST (2/3)
Length of Visible Light 11h 24m
Length of Day
10h 30m
Waxing Crescent, 20% of the Moon is Illuminated
Feb 3
Waxing Crescent
Feb 6
First Quarter
Feb 14
Full
Feb 22
Last Quarter
Mar 1
New

Hourly Weather History & Observations

Time (MST) Temp. Windchill Dew Point Humidity Pressure Visibility Wind Dir Wind Speed Gust Speed Precip Events Conditions
12:54 AM 21.0 °F - 15.1 °F 78% 29.94 in 10.0 mi Calm Calm - N/A   Scattered Clouds
1:54 AM 19.0 °F - 14.0 °F 81% 29.93 in 10.0 mi Calm Calm - N/A   Mostly Cloudy
2:54 AM 19.0 °F 13.9 °F 15.1 °F 85% 29.91 in 10.0 mi NE 3.5 mph - N/A   Overcast
3:54 AM 21.0 °F - 16.0 °F 81% 29.89 in 10.0 mi Calm Calm - N/A   Overcast
4:54 AM 25.0 °F - 18.0 °F 75% 29.86 in 10.0 mi Calm Calm - 0.00 in   Overcast
5:54 AM 24.1 °F - 19.0 °F 81% 29.87 in 10.0 mi Calm Calm - N/A   Overcast
6:54 AM 24.1 °F - 19.9 °F 84% 29.88 in 10.0 mi Calm Calm - N/A   Overcast
7:54 AM 24.1 °F - 19.0 °F 81% 29.88 in 10.0 mi Calm Calm - N/A   Overcast
8:35 AM 24.8 °F - 19.4 °F 80% 29.87 in 10.0 mi Calm Calm - N/A   Overcast
8:54 AM 25.0 °F - 19.9 °F 81% 29.89 in 10.0 mi Calm Calm - 0.00 in Snow Light Snow
9:09 AM 24.8 °F - 21.2 °F 86% 29.88 in 2.0 mi Calm Calm - 0.00 in Snow Light Snow
9:54 AM 27.0 °F - 19.9 °F 75% 29.89 in 2.0 mi Calm Calm - 0.00 in Snow Light Snow
10:11 AM 26.6 °F - 19.4 °F 74% 29.88 in 7.0 mi Calm Calm - 0.00 in   Overcast
10:54 AM 28.0 °F 18.6 °F 17.1 °F 63% 29.88 in 6.0 mi South 10.4 mph - 0.00 in Snow Light Snow
11:54 AM 27.0 °F 18.7 °F 19.9 °F 75% 29.88 in 4.0 mi SW 8.1 mph - 0.00 in   Overcast
12:40 PM 26.6 °F 18.2 °F 21.2 °F 80% 29.83 in 2.0 mi SW 8.1 mph - 0.00 in Snow Light Snow
12:47 PM 26.6 °F 19.1 °F 21.2 °F 80% 29.83 in 1.5 mi SW 6.9 mph - 0.00 in Snow Light Snow
12:49 PM 26.6 °F 20.0 °F 21.2 °F 80% 29.83 in 3.0 mi SW 5.8 mph - 0.00 in Snow Light Snow
12:54 PM 27.0 °F 19.5 °F 21.9 °F 81% 29.87 in 3.0 mi SSW 6.9 mph - 0.00 in Snow Light Snow
1:14 PM 28.4 °F 20.4 °F 21.2 °F 74% 29.81 in 5.0 mi SSW 8.1 mph - 0.00 in Snow Light Snow
1:37 PM 26.6 °F 16.8 °F 21.2 °F 80% 29.81 in 2.0 mi SW 10.4 mph - 0.00 in Snow Light Snow
1:54 PM 28.0 °F 19.3 °F 23.0 °F 81% 29.85 in 2.5 mi SW 9.2 mph - 0.00 in Snow Light Snow
2:54 PM 28.0 °F 20.0 °F 24.1 °F 85% 29.84 in 4.0 mi SW 8.1 mph - 0.00 in Snow Light Snow
3:16 PM 28.4 °F 24.6 °F 23.0 °F 80% 29.80 in 10.0 mi WSW 3.5 mph - 0.00 in   Overcast
3:54 PM 28.9 °F 22.8 °F 21.9 °F 75% 29.83 in 10.0 mi West 5.8 mph - 0.00 in   Overcast
4:54 PM 30.0 °F 25.2 °F 21.0 °F 69% 29.81 in 10.0 mi West 4.6 mph - N/A   Mostly Cloudy
5:54 PM 28.0 °F - 21.0 °F 75% 29.84 in 10.0 mi Calm Calm - N/A   Overcast
6:54 PM 28.0 °F - 21.0 °F 75% 29.85 in 10.0 mi Calm Calm - N/A   Overcast
7:54 PM 23.0 °F - 19.9 °F 88% 29.88 in 10.0 mi Calm Calm - N/A   Scattered Clouds
8:21 PM 19.4 °F - 17.6 °F 93% 29.84 in 10.0 mi Calm Calm - N/A   Partly Cloudy
8:54 PM 17.1 °F - 14.0 °F 88% 29.92 in 10.0 mi Calm Calm - N/A   Scattered Clouds
9:10 PM 15.8 °F - 15.8 °F 100% 29.84 in 10.0 mi Calm Calm - N/A   Mostly Cloudy
9:54 PM 19.9 °F - 17.1 °F 89% 29.89 in 10.0 mi Calm Calm - N/A   Overcast
10:23 PM 19.4 °F - 17.6 °F 93% 29.84 in 10.0 mi Calm Calm - 0.00 in   Overcast
10:54 PM 18.0 °F - 16.0 °F 92% 29.90 in 10.0 mi Calm Calm - 0.00 in   Mostly Cloudy
11:54 PM 12.0 °F - 10.0 °F 92% 29.94 in 10.0 mi Calm Calm - N/A   Mostly Cloudy